Location: Kernascl�den
(48.0062°N, 3.3198°W)
Time: 11:45:58
(UTC+00:00)

CSL-04 DEB - Pass Details

Date: 21 January 2021
Orbit: 544 x 628 km, 98.8° (Epoch: 06 March)

Event Time Altitude Azimuth Distance (km) Brightness Sun altitude
Rises 18:17:04 0° 14° (NNE) 2,872 7.7 -13.3°
Reaches altitude 10° 18:19:17 10° 13° (NNE) 1,950 6.8 -13.6°
Maximum altitude 18:23:30 83° 287° (WNW) 599 4.5 -14.3°
Drops below altitude 10° 18:27:35 10° 199° (SSW) 1,883 7.5 -15.0°
Sets 18:29:42 0° 199° (SSW) 2,763 8.3 -15.3°
